User: anonymous   Login
Location: Edinburgh
(55.9500°N, 3.1600°W)
Time: 03:12:58
(UTC+01:00)
Language:

Envisat - Orbit

View from above orbital plane
View from above orbital plane
View from above satellite
View from above satellite

Ground track
Ground track

The orbit data is extracted from the following two-line orbital elements,

1 27386U 02009A   17290.51014083 -.00000010  00000-0  10493-4 0  9991
2 27386  98.2183 330.5966 0001226  86.1767 273.9565 14.37905569818651
Epoch (UTC): 17 October 2017 12:14:36
Eccentricity: 0.0001226
inclination: 98.2183°
perigee height: 764 km
apogee height: 766 km
right ascension of ascending node: 330.5966°
argument of perigee: 86.1767°
revolutions per day: 14.37905569
mean anomaly at epoch: 273.9565°
orbit number at epoch: 81865

The dashed part of the orbit path shows where the satellite is in the earth's shadow,  

DLR